N1GCN Weather Reports


time (UTC)temp
C
wind
direction
speed
KPH
gust
KPH
rain 1hr
cm
rain 24hr
cm
rain mn
cm
humidity
%
barometer
mb
20260510213009 16 201 0.0 9.7 0.13 1.35 0.13 84 1012.3
20260510210001 17 153 0.0 16.1 0.10 1.70 0.10 86 1011.6
20260510203009 19 158 0.0 12.9 0.00 1.68 0.00 76 1011.0
20260510200001 19 196 1.6 11.3 0.00 1.83 0.00 79 1011.2
20260510190002 19 109 4.8 16.1 0.00 2.49 0.00 76 1011.3
20260510180002 18 75 4.8 16.1 0.00 2.72 0.00 80 1012.0
20260510173010 18 75 4.8 14.5 0.00 2.72 0.00 79 1011.5
20260510170002 18 129 4.8 16.1 0.00 2.72 0.00 80 1011.9
20260510160002 17 102 3.2 16.1 0.00 2.72 0.00 77 1012.2
20260510153010 17 100 4.8 12.9 0.00 2.72 0.00 92 1012.6
20260510150002 14 62 4.8 14.5 0.00 2.72 0.00 99 1012.6
20260510143011 13 82 1.6 11.3 0.00 2.72 0.00 100 1012.4
20260510140002 12 133 0.0 8.0 0.00 2.72 0.00 100 1012.1
20260510133011 12 141 0.0 16.1 0.00 2.72 0.00 100 1012.1
20260510130003 12 154 0.0 4.8 0.00 2.72 0.00 100 1012.3
20260510123011 11 154 0.0 4.8 0.00 2.72 0.00 100 1012.2
20260510120003 11 154 0.0 4.8 0.00 2.72 0.00 100 1011.8
20260510113011 10 146 0.0 9.7 0.00 2.72 0.00 100 1011.5
20260510110003 10 113 0.0 11.3 0.00 2.72 0.00 100 1011.3
20260510100003 10 118 0.0 8.0 0.00 2.72 0.00 100 1010.9
20260510093011 10 114 0.0 3.2 0.00 2.72 0.00 100 1011.3
20260510090003 10 117 0.0 1.6 0.00 2.72 0.00 100 1011.2
20260510083012 10 115 0.0 0.0 0.00 2.74 0.00 100 1011.1
20260510080004 10 115 0.0 0.0 0.00 2.74 0.00 100 1010.3
20260510073012 10 116 1.6 4.8 0.00 2.74 0.00 100 1010.4
20260510070004 11 114 0.0 1.6 0.00 2.74 0.00 100 1010.2
20260510063013 11 112 0.0 1.6 0.00 2.74 0.00 100 1009.5
20260510060004 11 113 0.0 4.8 0.00 2.74 0.00 100 1008.8
20260510053013 11 113 0.0 4.8 0.00 2.74 0.00 100 1008.2
20260510050004 11 115 0.0 0.0 0.00 2.74 0.00 100 1007.3
20260510043013 11 115 0.0 1.6 0.00 2.74 0.00 100 1007.4
20260510040004 11 116 0.0 0.0 0.00 2.74 0.00 100 1007.2
20260510033012 11 116 0.0 4.8 0.00 2.74 2.74 100 1007.8
20260510023008 11 109 0.0 0.0 0.00 2.74 2.74 100 1009.9
20260510020000 11 109 0.0 4.8 0.00 2.74 2.74 100 1010.3
20260510013009 11 125 0.0 4.8 0.00 2.74 2.74 100 1010.1
20260510010000 11 128 0.0 8.0 0.00 2.74 2.74 100 1010.2
20260510003009 11 139 1.6 9.7 0.00 2.74 2.74 97 1009.8
20260510000001 11 151 0.0 22.5 0.15 2.74 2.74 97 1009.8
20260509233011 11 72 4.8 19.3 0.33 2.74 2.74 97 1009.7
20260509230001 12 97 1.6 9.7 0.58 2.59 2.59 96 1010.9
20260509220001 12 115 0.0 4.8 0.86 2.01 2.01 96 1011.2